Location: Grandview
(34.8900°N, 117.1058°W)
Time: 00:44:10
(UTC-08:00)

Vanguard 1 Rocket - All Passes

Search period start: 23 February 2018 00:00
Search period end: 05 March 2018 00:00
Orbit: 655 x 4222 km, 34.3° (Epoch: 22 February)

Date Brightness Start Highest point End Pass type
(mag) Time Alt. Az. Time Alt. Az. Time Alt. Az.
23 Feb - 01:09:48 10° W 01:35:08 86° S 01:58:11 10° ESE visible
23 Feb - 03:42:27 10° WNW 04:07:50 60° SW 04:25:05 10° SE visible
23 Feb - 06:20:11 10° W 06:34:58 22° SW 06:45:34 10° S daylight
23 Feb - 19:05:44 10° S 19:17:21 34° SE 19:35:50 10° ENE visible
23 Feb - 21:28:31 10° SW 21:45:30 73° SSE 22:11:42 10° ENE visible
23 Feb - 23:56:10 10° W 00:19:04 89° S 00:44:34 10° E visible
24 Feb - 02:27:15 10° WNW 02:53:24 74° SSW 03:13:42 10° ESE visible
24 Feb - 05:01:50 10° WNW 05:23:04 37° SW 05:37:27 10° SSE visible
24 Feb - 17:58:19 10° SSE 18:06:10 18° ESE 18:17:00 10° E visible
24 Feb - 20:17:43 10° SW 20:31:51 58° SE 20:55:44 10° ENE visible
24 Feb - 22:43:25 10° WSW 23:03:14 86° S 23:29:59 10° E visible
25 Feb - 01:12:54 10° W 01:37:57 83° SSW 02:01:13 10° ESE visible
25 Feb - 03:45:26 10° WNW 04:10:04 53° SW 04:27:34 10° SSE visible
25 Feb - 06:25:20 10° W 06:36:50 17° WSW 06:45:55 10° SSW daylight
25 Feb - 19:07:55 10° SSW 19:19:28 41° SE 19:39:05 10° ENE visible
25 Feb - 21:31:32 10° WSW 21:48:13 78° SSE 22:14:35 10° E visible
25 Feb - 23:59:21 10° W 00:22:00 88° S 00:47:38 10° E visible
26 Feb - 02:30:14 10° WNW 02:55:53 67° SSW 03:16:27 10° SE visible
26 Feb - 05:05:25 10° W 05:25:00 31° SW 05:39:09 10° S visible
26 Feb - 17:59:32 10° S 18:08:12 24° SE 18:21:24 10° E visible
26 Feb - 20:20:32 10° SW 20:34:21 65° SSE 20:58:35 10° ENE visible
26 Feb - 22:46:37 10° W 23:06:10 88° S 23:33:00 10° E visible
27 Feb - 01:15:59 10° W 01:40:41 79° SSW 02:04:08 10° ESE visible
27 Feb - 03:48:32 10° WNW 04:12:11 46° SW 04:29:48 10° SSE visible
27 Feb - 06:33:14 10° WSW 06:38:44 11° WSW 06:43:42 10° SW daylight
27 Feb - 19:10:25 10° SSW 19:21:46 48° SE 19:42:07 10° ENE visible
27 Feb - 21:34:41 10° WSW 21:51:03 83° SSE 22:17:29 10° E visible
28 Feb - 00:02:32 10° W 00:24:53 86° S 00:50:38 10° ESE visible
28 Feb - 02:33:15 10° WNW 02:58:13 60° SSW 03:18:58 10° SE visible
28 Feb - 05:09:32 10° W 05:26:52 24° SW 05:40:17 10° S visible
28 Feb - 18:01:24 10° S 18:10:21 30° SE 18:25:07 10° E visible
28 Feb - 20:23:31 10° WSW 20:37:02 72° SSE 21:01:24 10° ENE visible
28 Feb - 22:49:52 10° W 23:09:08 89° S 23:36:00 10° E visible
01 Mar - 01:19:03 10° WNW 01:43:16 73° SSW 02:06:53 10° SE visible
01 Mar - 03:51:52 10° WNW 04:14:10 39° SW 04:31:40 10° SSE visible
01 Mar - 16:54:39 10° SSE 16:59:46 15° ESE 17:06:25 10° E daylight
01 Mar - 19:13:09 10° SW 19:24:15 56° SE 19:45:01 10° ENE visible
01 Mar - 21:37:54 10° WSW 21:54:01 86° S 22:20:25 10° E visible
02 Mar - 00:05:43 10° W 00:27:42 82° SSW 00:53:32 10° ESE visible
02 Mar - 02:36:21 10° WNW 03:00:27 53° SW 03:21:15 10° SSE visible
02 Mar - 05:14:37 10° W 05:28:45 19° SW 05:40:29 10° SSW visible
02 Mar - 18:03:42 10° SSW 18:12:38 37° SE 18:28:26 10° ENE visible
02 Mar - 20:26:39 10° WSW 20:39:53 79° SSE 21:04:14 10° E visible
02 Mar - 22:53:08 10° W 23:12:06 88° S 23:38:58 10° E visible
03 Mar - 01:22:09 10° WNW 01:45:45 66° SSW 02:09:26 10° SE visible
03 Mar - 03:55:33 10° W 04:16:06 32° SW 04:33:07 10° S visible
03 Mar - 16:55:41 10° S 17:01:58 20° SE 17:11:11 10° E daylight
03 Mar - 19:16:05 10° SW 19:26:55 64° SSE 19:47:51 10° ENE visible
03 Mar - 21:41:12 10° W 21:57:02 88° S 22:23:21 10° E visible
04 Mar - 00:08:54 10° W 00:30:26 77° SSW 00:56:17 10° ESE visible
04 Mar - 02:39:36 10° WNW 03:02:33 46° SW 03:23:13 10° SSE visible
04 Mar - 05:21:50 10° WSW 05:30:41 13° WSW 05:38:41 10° SW visible
04 Mar - 18:06:18 10° SSW 18:15:06 45° SE 18:31:31 10° ENE visible
04 Mar - 20:29:53 10° WSW 20:42:51 83° SSE 21:07:05 10° E visible
04 Mar - 22:56:24 10° W 23:15:03 85° S 23:41:50 10° ESE visible
